Яван

Таджикистан     38°18′52″N   69°02′12″E
темп.,
°C
ветер,
м/с
пор.,
м/с
влажн.,
%
обл.,
%
осадки,
мм/ч
давл.,
гПа
погр.,
м
21 июня, пн
пн2123:00+22св453420 0.0 100867
02:00+20св33333 0.0 100834
05:00+19всв22354 0.0 101011
08:00+25ююв11250 0.0 1011453
11:00+30юз43190 0.0 10101768
14:00+33юз43160 0.0 10082772
17:00+33ююз55154 0.0 10072830
20:00+26ю22221 0.0 100814
22 июня, вт
вт2223:00+23св33235 0.0 101022
02:00+20св32305 0.0 101021
05:00+19св22371 0.0 101013
08:00+27всв00250 0.0 1011398
11:00+32юз32160 0.0 10092075
14:00+35ююз44120 0.0 10073428
17:00+34ююз55100 0.0 10062886
20:00+26ююз23150 0.0 100714
23 июня, ср
ср2323:00+23св33170 0.0 100819
02:00+22св22200 0.0 100817
05:00+21св22212 0.0 100815
08:00+29вюв01144 0.0 1009326
11:00+34юз44110 0.0 10091973
14:00+36ююз5490 0.0 10073700
17:00+35ююз54100 0.0 10063438
20:00+27ююз33162 0.0 100723
24 июня, чт
чт2423:00+24св33170 0.0 100922
02:00+22св33210 0.0 100919
05:00+20св22240 0.0 100915
08:00+29вюв11160 0.0 1009361
11:00+34юз55100 0.0 10082037
14:00+35ююз5490 0.0 10063118
17:00+35ююз5480 0.0 10043049
20:00+27ю33130 0.0 100521
25 июня, пт
пт2523:00+23св22150 0.0 100715
02:00+21св22170 0.0 100614
05:00+20всв22190 0.0 100611
08:00+27ю23130 0.0 1007553
11:00+32юз45110 0.0 10071748
14:00+34ююз5490 0.0 10052794
17:00+34ююз3290 0.0 10032646
20:00+26ю22160 0.0 100411